04/01/2006 00:14,305,200,91,15,79.86,11.788,7.7501
04/01/2006 00:29,305,200,91,30,79.85,11.781,7.7501
04/01/2006 00:44,305,200,91,45,79.85,11.781,7.7501
04/01/2006 00:59,305,200,91,100,79.84,11.781,7.7501
04/01/2006 01:14,305,200,91,115,79.83,11.781,7.7501
04/01/2006 01:29,305,200,91,130,79.82,11.774,7.7501
04/01/2006 01:44,305,200,91,145,79.79,11.774,7.7501
04/01/2006 01:59,305,200,91,200,79.77,11.774,7.7501
04/01/2006 02:29,305,200,91,230,79.72,11.774,7.7501
04/01/2006 02:44,305,200,91,245,79.7,11.774,7.7501
04/01/2006 02:59,305,200,91,300,79.69,11.768,7.7501
04/01/2006 03:14,305,200,91,315,79.67,11.768,7.7501
04/01/2006 03:29,305,200,91,330,79.66,11.761,7.7501
04/01/2006 03:59,305,200,91,400,79.64,11.767,7.7501
04/01/2006 04:14,305,200,91,415,79.63,11.754,7.7501
04/01/2006 04:29,305,200,91,430,79.63,11.754,7.7501
04/01/2006 04:59,305,200,91,500,79.62,11.754,7.7501
04/01/2006 05:14,305,200,91,515,79.61,11.754,7.7501
04/01/2006 05:29,305,200,91,530,79.6,11.754,7.7501
04/01/2006 05:44,305,200,91,545,79.6,11.753,7.7501
04/01/2006 05:59,305,200,91,600,79.59,11.753,7.7501
04/01/2006 06:29,305,200,91,630,79.59,11.747,7.7501
04/01/2006 06:59,305,200,91,700,79.59,11.747,7.7501
04/01/2006 07:14,305,200,91,715,79.58,11.747,7.7601
04/01/2006 07:29,305,200,91,730,79.58,11.753,7.7601
04/01/2006 07:44,305,200,91,745,79.58,11.753,7.7601
04/01/2006 07:59,305,200,91,800,79.58,11.753,7.7601
04/01/2006 08:14,305,200,91,815,79.59,11.759,7.7601
04/01/2006 08:29,305,200,91,830,79.59,11.766,7.7601
04/01/2006 08:44,305,200,91,845,79.61,11.773,7.7601
04/01/2006 11:14,305,200,91,1115,79.95,11.939,7.7601
04/01/2006 11:44,305,200,91,1145,79.98,11.959,7.7601
04/01/2006 13:29,305,200,91,1330,79.91,12.04,7.7601
04/01/2006 14:44,305,200,91,1445,79.84,12.054,7.7601
04/01/2006 15:44,305,200,91,1545,79.82,12.001,7.7601
04/01/2006 16:29,305,200,91,1630,79.78,11.974,7.7601
04/01/2006 16:44,305,200,91,1645,79.74,11.947,7.7601
04/01/2006 16:59,305,200,91,1700,79.7,11.927,7.7601
04/01/2006 17:14,305,200,91,1715,79.69,11.907,7.7601
04/01/2006 17:29,305,200,91,1730,79.6,11.901,7.7601
04/01/2006 17:44,305,200,91,1745,79.59,11.894,7.7601
04/01/2006 17:59,305,200,91,1800,79.56,11.874,7.7601
04/01/2006 18:14,305,200,91,1815,79.52,11.861,7.7601
04/01/2006 18:29,305,200,91,1830,79.49,11.854,7.7601
04/01/2006 18:44,305,200,91,1845,79.47,11.854,7.7601
04/01/2006 18:59,305,200,91,1900,79.44,11.847,7.7601
04/01/2006 19:14,305,200,91,1915,79.43,11.841,7.7601
04/01/2006 19:29,305,200,91,1930,79.41,11.834,7.7601
04/01/2006 19:44,305,200,91,1945,79.37,11.827,7.7701
04/01/2006 19:59,305,200,91,2000,79.34,11.828,7.7701
04/01/2006 20:29,305,200,91,2030,79.27,11.821,7.7701
04/01/2006 20:44,305,200,91,2045,79.25,11.814,7.7701
04/01/2006 21:59,305,200,91,2200,79.2,11.801,7.7701
04/02/2006 12:59,305,200,92,1200,79.95,11.987,7.7801
04/02/2006 13:29,305,200,92,1230,79.97,12.007,7.7801
04/02/2006 13:44,305,200,92,1245,79.97,12.021,7.7801
04/02/2006 14:14,305,200,92,1315,79.93,12.087,7.7801
04/02/2006 14:29,305,200,92,1330,79.96,12.067,7.7801
04/02/2006 14:44,305,200,92,1345,79.97,12.094,7.7801
04/02/2006 15:29,305,200,92,1430,79.9,12.061,7.7801
04/02/2006 15:59,305,200,92,1500,79.8,11.98,7.7801
04/02/2006 16:14,305,200,92,1515,79.74,11.974,7.7801
04/02/2006 16:29,305,200,92,1530,79.78,12.027,7.7801
04/02/2006 16:59,305,200,92,1600,79.74,11.961,7.7801
04/02/2006 17:14,305,200,92,1615,79.7,11.948,7.7801
04/02/2006 17:29,305,200,92,1630,79.69,11.934,7.7801
04/02/2006 17:44,305,200,92,1645,79.67,11.921,7.7801
04/02/2006 17:59,305,200,92,1700,79.66,11.908,7.7801
04/02/2006 18:14,305,200,92,1715,79.65,11.901,7.7801
04/02/2006 18:59,305,200,92,1800,79.56,11.867,7.7801
04/02/2006 19:29,305,200,92,1830,79.52,11.854,7.7801
04/02/2006 19:44,305,200,92,1845,79.5,11.854,7.7801
04/02/2006 19:59,305,200,92,1900,79.49,11.848,7.7801
04/02/2006 20:14,305,200,92,1915,79.47,11.841,7.7801
04/02/2006 20:29,305,200,92,1930,79.45,11.834,7.7801
04/02/2006 20:44,305,200,92,1945,79.43,11.827,7.7801
04/02/2006 20:59,305,200,92,2000,79.42,11.827,7.7801
04/02/2006 21:14,305,200,92,2015,79.4,11.828,7.7801
04/02/2006 21:29,305,200,92,2030,79.41,11.821,7.7801
04/02/2006 21:44,305,200,92,2045,79.39,11.82,7.7801
04/02/2006 21:59,305,200,92,2100,79.38,11.807,7.7901
04/02/2006 22:14,305,200,92,2115,79.37,11.807,7.7901
04/02/2006 22:29,305,200,92,2130,79.37,11.807,7.7901
04/02/2006 22:44,305,200,92,2145,79.39,11.807,7.7901
04/02/2006 23:14,305,200,92,2215,79.4,11.801,7.7901
04/02/2006 23:29,305,200,92,2230,79.42,11.801,7.7901
04/03/2006 00:29,305,200,92,2330,79.46,11.795,7.7901
04/03/2006 00:44,305,200,92,2345,79.47,11.794,7.7901
04/03/2006 01:29,305,200,93,30,79.45,11.788,7.7901
04/03/2006 01:44,305,200,93,45,79.46,11.788,7.7901
04/03/2006 01:59,305,200,93,100,79.48,11.788,7.7901
04/03/2006 02:14,305,200,93,115,79.49,11.781,7.7901
04/03/2006 02:29,305,200,93,130,79.5,11.781,7.7901
04/03/2006 02:59,305,200,93,200,79.54,11.774,7.7901
04/03/2006 03:14,305,200,93,215,79.57,11.774,7.7901
04/03/2006 03:59,305,200,93,300,79.62,11.774,7.7901
04/03/2006 06:44,305,200,93,545,79.7,11.768,7.7901
04/03/2006 06:59,305,200,93,600,79.72,11.768,7.7901
04/03/2006 07:29,305,200,93,630,79.74,11.768,7.7901
04/03/2006 07:44,305,200,93,645,79.74,11.768,7.7901
04/03/2006 07:59,305,200,93,700,79.76,11.768,7.7901
04/03/2006 08:14,305,200,93,715,79.75,11.768,7.7901
04/03/2006 08:29,305,200,93,730,79.78,11.774,7.7901
04/03/2006 08:44,305,200,93,745,79.82,11.788,7.7901
04/03/2006 08:59,305,200,93,800,79.87,11.794,7.7901
04/03/2006 09:14,305,200,93,815,79.88,11.801,7.7901
04/03/2006 09:29,305,200,93,830,79.87,11.808,7.7901
04/03/2006 09:44,305,200,93,845,79.87,11.821,7.7901
04/03/2006 09:59,305,200,93,900,79.88,11.821,7.7901
04/03/2006 10:14,305,200,93,915,79.9,11.841,7.7901
04/03/2006 10:29,305,200,93,930,79.9,11.834,7.7901
04/03/2006 10:44,305,200,93,945,79.89,11.854,7.7901
04/03/2006 10:59,305,200,93,1000,79.92,11.854,7.7901
04/03/2006 11:14,305,200,93,1015,79.92,11.874,7.8001
04/03/2006 11:29,305,200,93,1030,79.91,11.887,7.8001
04/03/2006 11:44,305,200,93,1045,79.93,11.901,7.8001
04/03/2006 11:59,305,200,93,1100,79.93,11.894,7.8001
04/03/2006 12:14,305,200,93,1115,79.92,11.894,7.8001
04/03/2006 12:29,305,200,93,1130,79.91,11.874,7.8001
04/03/2006 12:44,305,200,93,1145,79.94,11.894,7.8001
04/03/2006 12:59,305,200,93,1200,79.95,11.901,7.8001
04/03/2006 13:14,305,200,93,1215,79.95,11.914,7.8001
04/03/2006 13:29,305,200,93,1230,79.91,11.901,7.8001
04/03/2006 13:44,305,200,93,1245,79.92,11.914,7.8001
04/03/2006 14:29,305,200,93,1330,79.98,12.015,7.8001
04/03/2006 15:44,305,200,93,1445,79.93,12.028,7.8001
04/03/2006 16:14,305,200,93,1515,79.96,11.981,7.8001
04/03/2006 16:29,305,200,93,1530,79.98,12.001,7.8001
04/03/2006 16:44,305,200,93,1545,79.97,11.961,7.8001
04/03/2006 16:59,305,200,93,1600,79.96,11.934,7.8001
04/03/2006 17:14,305,200,93,1615,79.94,11.921,7.8001
04/03/2006 17:44,305,200,93,1645,79.92,11.888,7.8001
04/03/2006 17:59,305,200,93,1700,79.92,11.881,7.8001
04/03/2006 18:14,305,200,93,1715,79.92,11.875,7.8001
04/03/2006 18:29,305,200,93,1730,79.93,11.861,7.8001
04/03/2006 18:44,305,200,93,1745,79.92,11.861,7.8001
04/03/2006 18:59,305,200,93,1800,79.94,11.861,7.8001
04/03/2006 19:14,305,200,93,1815,79.96,11.862,7.8001
04/03/2006 19:29,305,200,93,1830,79.95,11.848,7.8001
04/03/2006 19:44,305,200,93,1845,79.95,11.835,7.8001
04/03/2006 19:59,305,200,93,1900,79.95,11.835,7.8001
04/03/2006 20:29,305,200,93,1930,79.93,11.828,7.8001
04/03/2006 20:44,305,200,93,1945,79.91,11.821,7.8001
04/03/2006 20:59,305,200,93,2000,79.88,11.821,7.8001
04/03/2006 21:14,305,200,93,2015,79.87,11.814,7.8001
04/03/2006 21:29,305,200,93,2030,79.84,11.814,7.8001
04/03/2006 21:44,305,200,93,2045,79.82,11.815,7.8001
04/03/2006 21:59,305,200,93,2100,79.81,11.808,7.8001
04/03/2006 22:14,305,200,93,2115,79.81,11.808,7.8001
04/03/2006 22:29,305,200,93,2130,79.8,11.801,7.8001
04/03/2006 22:44,305,200,93,2145,79.79,11.801,7.8001
04/03/2006 22:59,305,200,93,2200,79.78,11.801,7.8001
04/03/2006 23:14,305,200,93,2215,79.77,11.801,7.8001
04/03/2006 23:29,305,200,93,2230,79.77,11.801,7.8001
04/03/2006 23:44,305,200,93,2245,79.76,11.794,7.8001
04/03/2006 23:59,305,200,93,2300,79.74,11.794,7.8001
04/04/2006 00:14,305,200,93,2315,79.72,11.787,7.8001
04/04/2006 00:29,305,200,93,2330,79.7,11.794,7.8001
04/04/2006 00:44,305,200,93,2345,79.69,11.787,7.8001
04/04/2006 00:59,305,200,93,2400,79.67,11.788,7.8101
04/04/2006 01:29,305,200,94,30,79.65,11.781,7.8101
04/04/2006 01:44,305,200,94,45,79.65,11.774,7.8101
04/04/2006 01:59,305,200,94,100,79.65,11.781,7.8101
04/04/2006 02:14,305,200,94,115,79.66,11.774,7.8101
04/04/2006 02:29,305,200,94,130,79.63,11.774,7.8101
04/04/2006 02:44,305,200,94,145,79.61,11.768,7.8101
04/04/2006 03:14,305,200,94,215,79.58,11.774,7.8101
04/04/2006 03:29,305,200,94,230,79.58,11.768,7.8101
04/04/2006 03:44,305,200,94,245,79.58,11.768,7.8101
04/04/2006 03:59,305,200,94,300,79.57,11.768,7.8101
04/04/2006 04:14,305,200,94,315,79.59,11.761,7.8101
04/04/2006 04:29,305,200,94,330,79.6,11.761,7.8101
04/04/2006 04:44,305,200,94,345,79.57,11.761,7.8101
04/04/2006 04:59,305,200,94,400,79.55,11.761,7.8101
04/04/2006 05:29,305,200,94,430,79.52,11.761,7.8101
04/04/2006 05:44,305,200,94,445,79.52,11.761,7.8101
04/04/2006 05:59,305,200,94,500,79.51,11.76,7.8101
04/04/2006 06:14,305,200,94,515,79.5,11.76,7.8101
04/04/2006 06:29,305,200,94,530,79.5,11.753,7.8101
04/04/2006 06:59,305,200,94,600,79.49,11.753,7.8101
04/04/2006 07:14,305,200,94,615,79.49,11.753,7.8101
04/04/2006 07:29,305,200,94,630,79.49,11.753,7.8101
04/04/2006 08:14,305,200,94,715,79.51,11.753,7.8101
04/04/2006 08:29,305,200,94,730,79.52,11.753,7.8101
04/04/2006 08:44,305,200,94,745,79.54,11.753,7.8101
04/04/2006 10:14,305,200,94,915,79.71,11.766,7.8101
04/04/2006 10:29,305,200,94,930,79.75,11.772,7.8101
04/04/2006 11:29,305,200,94,1030,79.98,11.8,7.8101
04/04/2006 11:44,305,200,94,1045,80.03,11.807,7.8101
04/04/2006 12:14,305,200,94,1115,80.03,11.813,7.8101
04/04/2006 12:44,305,200,94,1145,80.03,11.821,7.8101
04/04/2006 13:29,305,200,94,1230,80.03,11.834,7.8101
04/04/2006 13:44,305,200,94,1245,80.04,11.841,7.8101
04/04/2006 14:14,305,200,94,1315,80.04,11.874,7.8101
04/04/2006 14:29,305,200,94,1330,80.04,11.901,7.8101
04/04/2006 14:44,305,200,94,1345,80.04,11.974,7.8101
04/04/2006 14:59,305,200,94,1400,80.04,12.087,7.8101
04/04/2006 15:14,305,200,94,1415,80.01,12.153,7.8101
04/04/2006 15:44,305,200,94,1445,80.04,12.293,7.8101
04/04/2006 16:14,305,200,94,1515,80.04,12.187,7.8101
04/04/2006 16:29,305,200,94,1530,79.97,12.127,7.8201
04/04/2006 16:44,305,200,94,1545,79.98,12.048,7.8201
04/04/2006 16:59,305,200,94,1600,80.04,12.168,7.8201
04/04/2006 17:29,305,200,94,1630,79.98,12.081,7.8201
04/04/2006 17:44,305,200,94,1645,80.04,12.127,7.8201
04/04/2006 17:59,305,200,94,1700,80.04,12.067,7.8201
04/04/2006 18:14,305,200,94,1715,79.96,12.001,7.8201
04/04/2006 18:29,305,200,94,1730,79.88,11.961,7.8201
04/04/2006 18:44,305,200,94,1745,79.85,11.954,7.8201
04/04/2006 18:59,305,200,94,1800,79.85,11.941,7.8201
04/04/2006 19:14,305,200,94,1815,79.85,11.921,7.8201
04/04/2006 19:29,305,200,94,1830,79.85,11.908,7.8201
04/04/2006 19:44,305,200,94,1845,79.85,11.901,7.8201
04/04/2006 19:59,305,200,94,1900,79.87,11.888,7.8201
04/04/2006 20:14,305,200,94,1915,79.87,11.888,7.8201
04/04/2006 20:29,305,200,94,1930,79.87,11.881,7.8201
04/04/2006 20:59,305,200,94,2000,79.87,11.874,7.8201
04/04/2006 21:14,305,200,94,2015,79.88,11.868,7.8201
04/04/2006 21:29,305,200,94,2030,79.88,11.868,7.8201
04/04/2006 21:44,305,200,94,2045,79.87,11.861,7.8201
04/04/2006 21:59,305,200,94,2100,79.87,11.854,7.8201
04/04/2006 22:14,305,200,94,2115,79.86,11.854,7.8201
04/04/2006 22:29,305,200,94,2130,79.88,11.848,7.8201
04/04/2006 22:44,305,200,94,2145,79.9,11.848,7.8201
04/04/2006 22:59,305,200,94,2200,79.89,11.848,7.8201
04/04/2006 23:29,305,200,94,2230,79.87,11.841,7.8201
04/04/2006 23:44,305,200,94,2245,79.86,11.835,7.8201
04/04/2006 23:59,305,200,94,2300,79.86,11.835,7.8201
04/05/2006 00:14,305,200,94,2315,79.85,11.828,7.8201
04/05/2006 00:29,305,200,94,2330,79.85,11.828,7.8201
04/05/2006 00:44,305,200,94,2345,79.84,11.828,7.8201
04/05/2006 00:59,305,200,94,2400,79.86,11.821,7.8201
04/05/2006 01:14,305,200,95,15,79.81,11.821,7.8201
04/05/2006 01:29,305,200,95,30,79.78,11.821,7.8201
04/05/2006 01:44,305,200,95,45,79.77,11.814,7.8201
04/05/2006 01:59,305,200,95,100,79.77,11.814,7.8201
04/05/2006 02:14,305,200,95,115,79.78,11.808,7.8201
04/05/2006 02:29,305,200,95,130,79.79,11.814,7.8201
04/05/2006 02:44,305,200,95,145,79.8,11.808,7.8201
04/05/2006 02:59,305,200,95,200,79.78,11.808,7.8201
04/05/2006 03:14,305,200,95,215,79.78,11.801,7.8201
04/05/2006 03:29,305,200,95,230,79.77,11.808,7.8201
04/05/2006 03:44,305,200,95,245,79.76,11.801,7.8201
04/05/2006 03:59,305,200,95,300,79.75,11.801,7.8201
04/05/2006 04:14,305,200,95,315,79.73,11.801,7.8201
04/05/2006 04:29,305,200,95,330,79.73,11.794,7.8201
04/05/2006 04:44,305,200,95,345,79.72,11.801,7.8201
04/05/2006 05:29,305,200,95,430,79.7,11.788,7.8201
04/05/2006 05:44,305,200,95,445,79.7,11.794,7.8201
04/05/2006 05:59,305,200,95,500,79.7,11.787,7.8201
04/05/2006 06:14,305,200,95,515,79.69,11.794,7.8201
04/05/2006 06:44,305,200,95,545,79.7,11.78,7.8201
04/05/2006 06:59,305,200,95,600,79.72,11.78,7.8201
04/05/2006 07:29,305,200,95,630,79.74,11.78,7.8201
04/05/2006 07:44,305,200,95,645,79.76,11.786,7.8201
04/05/2006 07:59,305,200,95,700,79.8,11.793,7.8201
04/05/2006 08:14,305,200,95,715,79.82,11.786,7.8201
04/05/2006 08:44,305,200,95,745,79.9,11.794,7.8301
04/05/2006 09:14,305,200,95,815,79.97,11.806,7.8301
04/05/2006 09:29,305,200,95,830,80,11.813,7.8301
04/05/2006 09:59,305,200,95,900,80.02,11.807,7.8301
04/05/2006 10:14,305,200,95,915,80.04,11.807,7.8301
04/05/2006 10:29,305,200,95,930,80.05,11.813,7.8301
04/05/2006 10:59,305,200,95,1000,80.05,11.827,7.8301
04/05/2006 11:59,305,200,95,1100,80.05,11.847,7.8301
04/05/2006 12:29,305,200,95,1130,80.05,11.861,7.8301
04/05/2006 12:44,305,200,95,1145,80.04,11.874,7.8301
04/05/2006 13:14,305,200,95,1215,79.95,11.874,7.8301
04/05/2006 14:14,305,200,95,1315,80.06,11.907,7.8301
04/05/2006 14:44,305,200,95,1345,79.95,11.96,7.8301
04/05/2006 14:59,305,200,95,1400,80.02,12.094,7.8301
04/05/2006 15:59,305,200,95,1500,80.02,12.094,7.8301
04/05/2006 16:29,305,200,95,1530,79.86,11.988,7.8301
04/05/2006 16:44,305,200,95,1545,79.83,11.948,7.8301
04/05/2006 16:59,305,200,95,1600,79.79,11.948,7.8301
04/05/2006 17:14,305,200,95,1615,79.84,11.948,7.8301
04/05/2006 17:29,305,200,95,1630,79.86,11.948,7.8301
04/05/2006 17:44,305,200,95,1645,79.87,11.941,7.8301
04/05/2006 17:59,305,200,95,1700,79.89,11.934,7.8301
04/05/2006 18:14,305,200,95,1715,79.87,11.914,7.8301
04/05/2006 18:29,305,200,95,1730,79.86,11.901,7.8301
04/05/2006 18:44,305,200,95,1745,79.84,11.894,7.8301
04/05/2006 18:59,305,200,95,1800,79.84,11.881,7.8301
04/05/2006 19:29,305,200,95,1830,79.84,11.867,7.8301
04/05/2006 19:44,305,200,95,1845,79.84,11.867,7.8301
04/05/2006 19:59,305,200,95,1900,79.83,11.861,7.8301
04/05/2006 20:14,305,200,95,1915,79.81,11.854,7.8301
04/05/2006 20:29,305,200,95,1930,79.79,11.855,7.8301
04/05/2006 20:44,305,200,95,1945,79.79,11.848,7.8301
04/05/2006 20:59,305,200,95,2000,79.77,11.847,7.8301
04/05/2006 21:14,305,200,95,2015,79.76,11.848,7.8301
04/05/2006 21:29,305,200,95,2030,79.71,11.841,7.8301
04/05/2006 21:44,305,200,95,2045,79.67,11.841,7.8301
04/05/2006 21:59,305,200,95,2100,79.64,11.841,7.8301
04/05/2006 22:29,305,200,95,2130,79.6,11.827,7.8301
04/05/2006 22:44,305,200,95,2145,79.56,11.827,7.8401
04/05/2006 22:59,305,200,95,2200,79.53,11.821,7.8401
04/05/2006 23:14,305,200,95,2215,79.54,11.821,7.8401
04/05/2006 23:44,305,200,95,2245,79.55,11.82,7.8401
04/06/2006 00:14,305,200,95,2315,79.52,11.814,7.8401
04/06/2006 00:44,305,200,95,2345,79.5,11.808,7.8401
04/06/2006 00:59,305,200,95,2400,79.49,11.807,7.8401
04/06/2006 01:29,305,200,96,30,79.48,11.801,7.8401
04/06/2006 01:44,305,200,96,45,79.46,11.801,7.8401
04/06/2006 01:59,305,200,96,100,79.44,11.801,7.8401
04/06/2006 02:14,305,200,96,115,79.43,11.808,7.8401
04/06/2006 02:29,305,200,96,130,79.44,11.795,7.8401
04/06/2006 02:44,305,200,96,145,79.44,11.794,7.8401
04/06/2006 02:59,305,200,96,200,79.44,11.794,7.8401
04/06/2006 03:29,305,200,96,230,79.42,11.788,7.8401
04/06/2006 03:44,305,200,96,245,79.41,11.794,7.8401
04/06/2006 03:59,305,200,96,300,79.41,11.787,7.8401
04/06/2006 04:14,305,200,96,315,79.4,11.787,7.8401
04/06/2006 04:29,305,200,96,330,79.39,11.787,7.8401
04/06/2006 04:59,305,200,96,400,79.39,11.787,7.8401
04/06/2006 06:14,305,200,96,515,79.34,11.781,7.8401
04/06/2006 06:29,305,200,96,530,79.34,11.78,7.8401
04/06/2006 06:59,305,200,96,600,79.32,11.773,7.8401
04/06/2006 07:14,305,200,96,615,79.31,11.78,7.8401
04/06/2006 07:29,305,200,96,630,79.34,11.787,7.8401
04/06/2006 07:44,305,200,96,645,79.37,11.787,7.8401
04/06/2006 07:59,305,200,96,700,79.36,11.787,7.8401
04/06/2006 08:14,305,200,96,715,79.35,11.781,7.8401
04/06/2006 08:29,305,200,96,730,79.34,11.786,7.8401
04/06/2006 08:59,305,200,96,800,79.43,11.813,7.8401
04/06/2006 09:29,305,200,96,830,79.52,11.826,7.8401
04/06/2006 09:59,305,200,96,900,79.66,11.866,7.8401
04/06/2006 10:14,305,200,96,915,79.71,11.873,7.8401
04/06/2006 10:29,305,200,96,930,79.72,11.88,7.8401
04/06/2006 10:44,305,200,96,945,79.74,11.894,7.8401
04/06/2006 11:29,305,200,96,1030,79.82,11.934,7.8401
04/06/2006 12:14,305,200,96,1115,79.81,11.941,7.8401
04/06/2006 12:59,305,200,96,1200,79.8,11.921,7.8401
04/06/2006 13:14,305,200,96,1215,79.79,11.928,7.8401
04/06/2006 13:44,305,200,96,1245,79.91,11.974,7.8401
04/06/2006 14:14,305,200,96,1315,79.94,11.981,7.8401
04/06/2006 14:44,305,200,96,1305,79.87,11.921,7.8401
04/06/2006 14:59,305,200,96,1400,79.88,11.933,7.8401
04/06/2006 15:44,305,200,96,1445,80.05,12.233,7.8401
04/06/2006 16:14,305,200,96,1515,80.09,12.067,7.8401
04/06/2006 17:14,305,200,96,1615,79.98,12.001,7.8501
04/06/2006 17:29,305,200,96,1630,80.1,12.213,7.8501
04/06/2006 17:44,305,200,96,1645,80.11,12.121,7.8501
04/06/2006 17:59,305,200,96,1700,80.05,12.067,7.8501
04/06/2006 18:29,305,200,96,1730,79.95,11.981,7.8501
04/06/2006 18:44,305,200,96,1745,79.86,11.961,7.8501
04/06/2006 18:59,305,200,96,1800,79.8,11.941,7.8501
04/06/2006 19:14,305,200,96,1815,79.74,11.927,7.8501
04/06/2006 19:29,305,200,96,1830,79.69,11.907,7.8501
04/06/2006 19:44,305,200,96,1845,79.66,11.901,7.8501
04/06/2006 19:59,305,200,96,1900,79.62,11.901,7.8501
04/06/2006 20:14,305,200,96,1915,79.58,11.888,7.8501
04/06/2006 20:29,305,200,96,1930,79.55,11.881,7.8501
04/06/2006 20:59,305,200,96,2000,79.48,11.874,7.8501
04/06/2006 21:29,305,200,96,2030,79.43,11.861,7.8501
04/06/2006 21:59,305,200,96,2100,79.38,11.854,7.8501
04/06/2006 22:14,305,200,96,2115,79.36,11.854,7.8501
04/06/2006 22:29,305,200,96,2130,79.35,11.847,7.8501
04/06/2006 22:44,305,200,96,2145,79.33,11.848,7.8501
04/06/2006 22:59,305,200,96,2200,79.32,11.841,7.8501
04/06/2006 23:29,305,200,96,2230,79.31,11.834,7.8501
04/06/2006 23:44,305,200,96,2245,79.3,11.834,7.8501
04/06/2006 23:59,305,200,96,2300,79.3,11.827,7.8501
04/07/2006 00:14,305,200,96,2315,79.29,11.834,7.8501
04/07/2006 00:29,305,200,96,2330,79.28,11.821,7.8501
04/07/2006 00:44,305,200,96,2345,79.29,11.821,7.8501
04/07/2006 00:59,305,200,96,2400,79.3,11.814,7.8501
04/07/2006 01:14,305,200,97,15,79.31,11.821,7.8501
04/07/2006 01:29,305,200,97,30,79.32,11.821,7.8501
04/07/2006 01:44,305,200,97,45,79.33,11.814,7.8501
04/07/2006 01:59,305,200,97,100,79.33,11.808,7.8501
04/07/2006 02:14,305,200,97,115,79.34,11.814,7.8501
04/07/2006 02:29,305,200,97,130,79.35,11.814,7.8501
04/07/2006 02:44,305,200,97,145,79.36,11.808,7.8501
04/07/2006 02:59,305,200,97,200,79.37,11.801,7.8501
04/07/2006 03:14,305,200,97,215,79.37,11.808,7.8501
04/07/2006 03:29,305,200,97,230,79.38,11.801,7.8501
04/07/2006 04:14,305,200,97,315,79.4,11.794,7.8501
04/07/2006 04:29,305,200,97,330,79.42,11.801,7.8501
04/07/2006 04:44,305,200,97,345,79.43,11.8,7.8501
04/07/2006 05:14,305,200,97,415,79.45,11.793,7.8501
04/07/2006 05:29,305,200,97,430,79.45,11.793,7.8501
04/07/2006 05:44,305,200,97,445,79.46,11.793,7.8501
04/07/2006 05:59,305,200,97,500,79.47,11.793,7.8501
04/07/2006 06:14,305,200,97,515,79.47,11.787,7.8501
04/07/2006 06:29,305,200,97,530,79.47,11.786,7.8501
04/07/2006 06:59,305,200,97,600,79.48,11.787,7.8501
04/07/2006 07:29,305,200,97,630,79.52,11.786,7.8501
04/07/2006 07:44,305,200,97,645,79.55,11.799,7.8501
04/07/2006 07:59,305,200,97,700,79.61,11.8,7.8501
04/07/2006 08:14,305,200,97,715,79.63,11.8,7.8501
04/07/2006 08:29,305,200,97,730,79.68,11.8,7.8501
04/07/2006 08:59,305,200,97,800,79.72,11.813,7.8501
04/07/2006 09:14,305,200,97,815,79.76,11.82,7.8501
04/07/2006 09:29,305,200,97,830,79.81,11.827,7.8501
04/07/2006 09:44,305,200,97,845,79.87,11.833,7.8501
04/07/2006 10:59,305,200,97,1000,79.97,11.894,7.8501
04/07/2006 12:29,305,200,97,1130,79.96,11.961,7.8601
04/07/2006 13:29,305,200,97,1230,79.97,12.007,7.8601
04/07/2006 14:44,305,200,97,1345,79.95,12.034,7.8601
04/07/2006 15:29,305,200,97,1430,79.9,12.101,7.8601
04/07/2006 15:59,305,200,97,1500,79.8,12.021,7.8601
04/07/2006 16:44,305,200,97,1545,79.78,12.001,7.8601
04/07/2006 16:59,305,200,97,1600,79.76,11.974,7.8601
04/07/2006 17:29,305,200,97,1630,79.81,11.967,7.8601
04/07/2006 17:44,305,200,97,1645,79.82,11.954,7.8601
04/07/2006 17:59,305,200,97,1700,79.84,11.947,7.8601
04/07/2006 18:14,305,200,97,1715,79.86,11.934,7.8601
04/07/2006 18:44,305,200,97,1745,79.87,11.934,7.8601
04/07/2006 18:59,305,200,97,1800,79.89,11.914,7.8601
04/07/2006 19:14,305,200,97,1815,79.89,11.901,7.8601
04/07/2006 19:29,305,200,97,1830,79.9,11.888,7.8601
04/07/2006 19:44,305,200,97,1845,79.91,11.888,7.8601
04/07/2006 20:14,305,200,97,1915,79.93,11.874,7.8601
04/07/2006 20:29,305,200,97,1930,79.95,11.874,7.8601
04/07/2006 20:44,305,200,97,1945,79.96,11.868,7.8601
04/07/2006 20:59,305,200,97,2000,79.96,11.861,7.8601
04/07/2006 21:29,305,200,97,2030,79.97,11.861,7.8601
04/07/2006 21:44,305,200,97,2045,79.99,11.854,7.8601
04/07/2006 21:59,305,200,97,2100,79.98,11.854,7.8601
04/07/2006 22:14,305,200,97,2115,79.97,11.848,7.8601
04/07/2006 22:29,305,200,97,2130,79.98,11.848,7.8601
04/07/2006 22:44,305,200,97,2145,79.97,11.848,7.8601
04/07/2006 22:59,305,200,97,2200,79.98,11.848,7.8601
04/07/2006 23:29,305,200,97,2230,79.97,11.841,7.8601
04/07/2006 23:44,305,200,97,2245,79.95,11.841,7.8601
04/08/2006 00:14,305,200,97,2315,79.93,11.834,7.8601
04/08/2006 00:29,305,200,97,2330,79.92,11.835,7.8601
04/08/2006 00:44,305,200,97,2345,79.9,11.827,7.8601
04/08/2006 00:59,305,200,97,2400,79.89,11.828,7.8601
04/08/2006 01:29,305,200,98,30,79.88,11.828,7.8601
04/08/2006 01:59,305,200,98,100,79.86,11.821,7.8601
04/08/2006 02:14,305,200,98,115,79.85,11.821,7.8601
04/08/2006 02:29,305,200,98,130,79.85,11.821,7.8601
04/08/2006 02:44,305,200,98,145,79.85,11.821,7.8601
04/08/2006 02:59,305,200,98,200,79.84,11.821,7.8601
04/08/2006 03:14,305,200,98,215,79.84,11.815,7.8601
04/08/2006 03:29,305,200,98,230,79.83,11.82,7.8601
04/08/2006 03:44,305,200,98,245,79.82,11.821,7.8601
04/08/2006 03:59,305,200,98,300,79.81,11.814,7.8601
04/08/2006 04:14,305,200,98,315,79.8,11.814,7.8701
04/08/2006 04:29,305,200,98,330,79.8,11.814,7.8701
04/08/2006 04:44,305,200,98,345,79.79,11.814,7.8701
04/08/2006 04:59,305,200,98,400,79.79,11.808,7.8701
04/08/2006 05:14,305,200,98,415,79.79,11.807,7.8701
04/08/2006 05:29,305,200,98,430,79.79,11.801,7.8701
04/08/2006 05:44,305,200,98,445,79.79,11.807,7.8701
04/08/2006 05:59,305,200,98,500,79.79,11.808,7.8701
04/08/2006 06:14,305,200,98,515,79.78,11.808,7.8701